Location: Observatoire
(46.1952°N, 5.3391°E)
Time: 00:59:55
(UTC+01:00)

Explorer 7 - Pass Details

Date: 20 February 2026
Orbit: 430 x 541 km, 50.2° (Epoch: 9 March)

Event Time Altitude Azimuth Distance (km) Brightness Sun altitude
Rises 19:53:55 0° 293° (WNW) 2,517 11.5 -18.3°
Reaches altitude 10° 19:56:03 10° 291° (WNW) 1,657 10.4 -18.7°
Maximum altitude 19:59:47 67° 209° (SSW) 538 6.8 -19.4°
Enters shadow 20:00:41 47° 146° (SSE) 663 6.9 -19.5°
Drops below altitude 10° 20:03:39 10° 126° (SE) 1,720 - -20.0°
Sets 20:05:54 0° 124° (ESE) 2,623 - -20.4°
